GW5241 Weather Reports


time (UTC)temp
C
wind
direction
speed
KPH
gust
KPH
rain 1hr
cm
rain 24hr
cm
rain mn
cm
humidity
%
barometer
mb
20260906183004 33 23 4.8 25.7 0.00 0.00 0.00 43 1015.8
20260906181504 34 23 17.7 37.0 0.00 0.00 0.00 46 1015.7
20260906180004 37 96 1.6 8.0 0.00 0.00 0.00 1015.6
20260906174504 37 77 3.2 11.3 0.00 0.00 0.00 36 1015.9
20260906173004 38 72 3.2 8.0 0.00 0.00 0.00 35 1016.2
20260906171505 37 12 4.8 11.3 0.00 0.00 0.00 36 1016.5
20260906170004 37 15 1.6 8.0 0.00 0.00 0.00 39 1016.7
20260906164506 37 355 3.2 6.4 0.00 0.00 0.00 1017.0
20260906163005 37 204 3.2 4.8 0.00 0.00 0.00 38 1017.0
20260906161505 36 360 4.8 8.0 0.00 0.00 0.00 40 1017.2
20260906160012 36 225 3.2 6.4 0.00 0.00 0.00 43 1017.2
20260906154508 35 217 0.0 4.8 0.00 0.00 0.00 46 1017.1
20260906153007 33 275 3.2 8.0 0.00 0.00 0.00 46 1017.1
20260906151506 33 255 3.2 8.0 0.00 0.00 0.00 48 1017.0
20260906150006 33 316 3.2 6.4 0.00 0.00 0.00 49 1017.0
20260906144507 31 188 3.2 8.0 0.00 0.00 0.00 54 1017.1
20260906143009 31 231 1.6 6.4 0.00 0.00 0.00 55 1017.1
20260906141512 30 170 4.8 6.4 0.00 0.00 0.00 58 1017.2
20260906140012 29 40 0.0 3.2 0.00 0.00 0.00 63 1017.0
20260906134508 27 54 0.0 3.2 0.00 0.00 0.00 67 1016.9
20260906133010 26 110 1.6 3.2 0.00 0.00 0.00 69 1016.8
20260906131508 25 51 0.0 4.8 0.00 0.00 0.00 72 1016.7
20260906130011 24 120 0.0 3.2 0.00 0.00 0.00 75 1016.6
20260906124512 23 46 0.0 4.8 0.00 0.00 0.00 78 1016.4
20260906123011 22 168 0.0 4.8 0.00 0.00 0.00 80 1016.3
20260906121516 22 115 1.6 3.2 0.00 0.00 0.00 81 1016.3
20260906120016 22 101 0.0 3.2 0.00 0.00 0.00 81 1016.2
20260906114534 22 78 0.0 3.2 0.00 0.00 0.00 80 1016.0
20260906113021 22 139 1.6 3.2 0.00 0.00 0.00 80 1016.0
20260906111516 22 201 0.0 3.2 0.00 0.00 0.00 80 1015.9
20260906110020 22 129 3.2 6.4 0.00 0.00 0.00 80 1015.9
20260906104522 22 114 0.0 3.2 0.00 0.00 0.00 79 1015.8
20260906103020 22 106 1.6 3.2 0.00 0.00 0.00 80 1015.6
20260906101509 22 123 0.0 4.8 0.00 0.00 0.00 80 1015.6
20260906100009 22 114 1.6 3.2 0.00 0.00 0.00 80 1015.5
20260906094513 22 110 1.6 4.8 0.00 0.00 0.00 80 1015.6
20260906093023 22 122 1.6 4.8 0.00 0.00 0.00 79 1015.4
20260906091527 23 83 0.0 3.2 0.00 0.00 0.00 78 1015.3
20260906090013 23 122 3.2 4.8 0.00 0.00 0.00 78 1015.1
20260906084511 23 136 1.6 4.8 0.00 0.00 0.00 78 1015.2
20260906083016 23 105 1.6 3.2 0.00 0.00 0.00 78 1015.0
20260906081523 23 98 1.6 3.2 0.00 0.00 0.00 77 1015.1
20260906080004 23 109 0.0 4.8 0.00 0.00 0.00 76 1015.0
20260906074511 24 94 3.2 8.0 0.00 0.00 0.00 75 1015.1
20260906073019 24 169 1.6 6.4 0.00 0.00 0.00 75 1015.3
20260906071522 24 78 1.6 3.2 0.00 0.00 0.00 76 1015.4
20260906070028 24 122 0.0 3.2 0.00 0.00 0.00 77 1015.4
20260906064508 24 347 0.0 3.2 0.00 0.00 0.00 76 1015.4
20260906063015 24 82 0.0 4.8 0.00 0.00 0.00 75 1015.4
20260906061518 25 127 0.0 3.2 0.00 0.00 0.00 75 1015.4
20260906060032 25 70 0.0 3.2 0.00 0.00 0.00 74 1015.5
20260906054542 25 65 0.0 3.2 0.00 0.00 0.00 73 1015.3
20260906053010 25 34 0.0 3.2 0.00 0.00 0.00 72 1015.4
20260906051518 26 82 0.0 3.2 0.00 0.00 0.00 71 1015.4
20260906050028 26 88 0.0 3.2 0.00 0.00 0.00 70 1015.2
20260906044528 26 112 0.0 3.2 0.00 0.00 0.00 70 1015.3
20260906043032 27 32 0.0 3.2 0.00 0.00 0.00 68 1015.3
20260906041515 27 29 0.0 3.2 0.00 0.00 0.00 67 1015.3
20260906040044 27 140 0.0 3.2 0.00 0.00 0.00 66 1015.3
20260906034530 27 18 0.0 4.8 0.00 0.00 0.00 66 1015.3
20260906033041 27 87 1.6 3.2 0.00 0.00 0.00 65 1014.9
20260906031515 28 108 0.0 3.2 0.00 0.00 0.00 64 1014.8
20260906030021 28 102 1.6 3.2 0.00 0.00 0.00 63 1014.8
20260906024530 28 72 0.0 3.2 0.00 0.00 0.00 61 1014.7
20260906023008 28 120 0.0 0.0 0.00 0.00 0.00 61 1014.7
20260906021514 29 41 0.0 3.2 0.00 0.00 0.00 60 1014.4
20260906020019 30 82 0.0 3.2 0.00 0.00 0.00 58 1014.2
20260906014529 30 81 0.0 3.2 0.00 0.00 0.00 57 1014.2
20260906013033 31 87 0.0 3.2 0.00 0.00 0.00 55 1013.9
20260906011516 31 64 0.0 3.2 0.00 0.00 0.00 53 1013.8
20260906010019 32 27 0.0 3.2 0.00 0.00 0.00 50 1013.6
20260906004527 33 27 0.0 3.2 0.00 0.00 0.00 46 1013.5
20260906003028 35 20 0.0 3.2 0.00 0.00 0.00 44 1013.5
20260906001532 36 20 0.0 3.2 0.00 0.00 0.00 41 1013.5
20260906000014 37 31 0.0 4.8 0.00 0.00 0.00 38 1013.6
20260905234505 37 63 0.0 4.8 0.00 0.00 0.00 34 1013.6
20260905233026 37 32 3.2 4.8 0.00 0.00 0.00 33 1013.5
20260905231512 38 108 1.6 4.8 0.00 0.00 0.00 32 1013.5
20260905230012 38 3 0.0 4.8 0.00 0.00 0.00 32 1013.5
20260905224605 38 307 1.6 8.0 0.00 0.00 0.00 31 1013.4
20260905223004 38 89 3.2 4.8 0.00 0.00 0.00 32 1013.4
20260905221506 37 120 0.0 3.2 0.00 0.00 0.00 34 1013.5
20260905220010 37 156 0.0 6.4 0.00 0.00 0.00 35 1013.7
20260905214536 37 28 3.2 8.0 0.00 0.00 0.00 33 1013.8
20260905213004 38 17 3.2 9.7 0.00 0.00 0.00 33 1013.9
20260905211508 39 340 3.2 8.0 0.00 0.00 0.00 31 1014.0
20260905210018 38 193 3.2 9.7 0.00 0.00 0.00 32 1014.2
20260905204532 37 281 4.8 9.7 0.00 0.00 0.00 35 1014.5
20260905203020 37 281 3.2 11.3 0.00 0.00 0.00 36 1014.9
20260905201506 36 62 1.6 4.8 0.00 0.00 0.00 38 1015.1
20260905200020 36 63 3.2 6.4 0.00 0.00 0.00 38 1015.2
20260905194532 37 57 1.6 11.3 0.00 0.00 0.00 36 1015.3
20260905193020 38 25 4.8 11.3 0.00 0.00 0.00 35 1015.5
20260905191526 37 262 0.0 6.4 0.00 0.00 0.00 38 1015.8
20260905190005 37 360 4.8 16.1 0.00 0.00 0.00 37 1016.0
20260905184524 37 212 1.6 11.3 0.00 0.00 0.00 38 1016.3